DateTime,F1_A11,F1_S11,BsB_S11,BsG_S11,BsR_S11,BbsB_S11,BbsG_S11,BbsR_S11,BaB_A11,BaG_A11,BaR_A11,T_S11,U_S11,P_S11,T1_A11
2016-06-29T00:00:00Z,0000380,20000600,,,,,,,,,,26.3,03.8,0669.7,34.5
2016-06-29T00:01:00Z,0000380,20000600,,,,,,,,,,26.3,03.8,0669.7,34.5
2016-06-29T00:02:00Z,0000380,20000600,,,,,,,,,,26.3,03.6,0669.7,34.5
2016-06-29T00:03:00Z,0000380,60000600,,,,,,,,,,26.3,03.6,0669.6,34.5
2016-06-29T00:04:00Z,0000380,40000600,0002.95,0001.54,0000.96,0000.36,0000.17,-000.06,0000.10,0000.02,0000.04,26.3,03.7,0670.4,34.5
2016-06-29T00:05:00Z,0000380,00000600,0001.95,0001.57,0000.72,0000.54,0000.36,-000.05,-000.05,-000.02,0000.08,26.3,03.6,0670.5,34.5
2016-06-29T00:06:00Z,0000380,00000600,0001.89,0001.57,0000.42,0000.57,0000.31,-000.03,0000.05,0000.33,0000.42,26.3,03.6,0670.5,34.5
2016-06-29T00:07:00Z,0000380,00000600,0001.27,0001.03,0001.06,0000.52,0000.67,-000.11,0000.29,0000.03,-000.09,26.3,03.7,0670.5,34.5
2016-06-29T00:08:00Z,0000380,00000600,0000.86,0001.29,0000.12,0000.54,0000.20,0000.09,-000.08,0000.12,-000.14,26.3,03.7,0670.5,34.5
2016-06-29T00:09:00Z,0000380,00000600,0002.56,0001.34,0000.24,0000.19,0000.05,0000.13,-000.10,-000.14,0000.01,26.3,03.6,0670.5,34.5
2016-06-29T00:10:00Z,0000380,00000600,0002.05,0000.77,0000.64,0000.17,0000.05,0000.14,0000.23,0000.05,0000.13,26.3,03.4,0670.5,34.5
2016-06-29T00:11:00Z,0000380,00000600,0002.12,0001.88,0000.46,0000.24,0000.45,-000.14,-000.18,0000.08,-000.06,26.3,03.5,0670.5,34.5
2016-06-29T00:12:00Z,0000380,00000600,0001.91,0000.95,0000.84,0000.39,0000.39,0000.49,0000.05,-000.04,-000.06,26.3,03.5,0670.5,34.5
2016-06-29T00:13:00Z,0000380,00000600,0002.05,0000.46,0000.48,0000.35,-000.05,0000.36,0000.11,-000.10,-000.22,26.3,03.5,0670.5,34.5
2016-06-29T00:14:00Z,0000380,00000600,0001.24,0001.01,0000.82,-000.46,0000.03,0000.08,-000.02,0000.15,0000.21,26.3,03.4,0670.5,34.5
2016-06-29T00:15:00Z,0000380,00000600,0001.74,0000.88,0000.36,-000.50,0000.49,0000.19,-000.04,-000.08,-000.06,26.3,03.3,0670.5,34.5
2016-06-29T00:16:00Z,0000380,00000600,0001.83,0000.81,0000.29,0000.71,0000.27,0000.11,0000.03,-000.07,0000.07,26.3,03.1,0670.4,34.5
2016-06-29T00:17:00Z,0000380,00000600,0002.17,0001.59,0000.36,0000.68,0000.64,-000.08,-000.06,0000.12,-000.27,26.3,03.2,0670.4,34.5
2016-06-29T00:18:00Z,0000380,00000600,0001.74,0001.24,0000.22,0000.35,0000.56,0000.22,0000.05,0000.00,0000.33,26.3,03.1,0670.5,34.5
2016-06-29T00:19:00Z,0000380,00000600,0001.82,0000.83,0000.34,0000.58,0000.09,-000.14,0000.22,-000.01,-000.16,26.3,03.1,0670.5,34.5
2016-06-29T00:20:00Z,0000380,00000600,0001.83,0001.01,0000.61,0000.38,0000.49,-000.08,-000.04,0000.03,-000.04,26.3,03.1,0670.5,34.5
2016-06-29T00:21:00Z,0000380,00000600,0001.28,0001.00,0000.23,0000.35,0000.41,0000.24,-000.02,-000.15,-000.15,26.3,03.2,0670.5,34.5
2016-06-29T00:22:00Z,0000380,00000600,0002.09,0001.09,-000.02,0000.08,0000.20,-000.02,0000.08,0000.06,0000.53,26.3,03.1,0670.5,34.5
2016-06-29T00:23:00Z,0000380,00000600,0001.81,0001.20,-000.01,0000.63,0000.38,0000.08,-000.04,0000.10,-000.10,26.3,03.1,0670.5,34.5
2016-06-29T00:24:00Z,0000380,00000600,0002.12,0001.30,0000.03,-000.05,0000.47,0000.13,0000.10,0000.01,-000.07,26.3,03.0,0670.5,34.5
2016-06-29T00:25:00Z,0000380,00000600,0002.13,0001.18,0000.55,0000.20,0000.44,0000.14,0000.17,0000.19,0000.06,26.3,03.0,0670.5,34.5
2016-06-29T00:26:00Z,0000380,00000600,0002.48,0001.92,0000.26,0000.00,0000.41,0000.24,-000.15,-000.23,-000.22,26.3,02.9,0670.5,34.5
2016-06-29T00:27:00Z,0000380,00000600,0001.85,0001.64,0000.25,0000.50,0000.45,0000.32,0000.18,0000.22,0000.36,26.3,02.9,0670.5,34.5
2016-06-29T00:28:00Z,0000380,00000600,0001.40,0001.40,0000.07,0000.11,0000.36,0000.11,0000.03,0000.16,-000.19,26.3,02.9,0670.5,34.5
2016-06-29T00:29:00Z,0000380,00000600,0002.10,0001.20,0000.30,0000.58,0000.56,0000.27,0000.11,0000.07,0000.29,26.3,02.9,0670.5,34.5
2016-06-29T00:30:00Z,0000380,00000600,0001.66,0001.05,0000.62,0000.66,0000.09,0000.17,-000.04,-000.05,0000.07,26.3,02.9,0670.5,34.5
2016-06-29T00:31:00Z,0000380,00000600,0000.94,0000.76,0000.46,0000.06,-000.02,-000.16,0000.06,-000.10,-000.07,26.3,02.9,0670.5,34.5
2016-06-29T00:32:00Z,0000380,00000600,0002.27,0000.65,0000.05,0000.28,0000.67,0000.08,0000.04,0000.18,0000.21,26.3,02.9,0670.5,34.5
2016-06-29T00:33:00Z,0000380,00000600,0001.37,0000.54,0000.08,0000.02,0000.17,-000.09,0000.07,0000.15,0000.09,26.3,02.8,0670.5,34.5
2016-06-29T00:34:00Z,0000380,00000600,0002.15,0000.48,0000.01,0000.16,0000.22,0000.08,-000.05,-000.26,-000.05,26.3,02.9,0670.5,34.5
2016-06-29T00:35:00Z,0000380,00000600,0001.78,0001.19,0000.52,0000.14,0000.19,0000.35,-000.15,0000.36,-000.34,26.3,02.9,0670.5,34.5
2016-06-29T00:36:00Z,0000380,00000600,0001.62,0001.14,0000.57,0000.32,-000.09,0000.16,0000.28,-000.26,0000.30,26.3,02.8,0670.5,34.5
2016-06-29T00:37:00Z,0000380,00000600,0001.09,0001.40,0000.57,-000.09,0000.27,0000.14,0000.03,0000.29,-000.18,26.3,02.8,0670.5,34.5
2016-06-29T00:38:00Z,0000380,00000600,0001.41,0001.45,0000.19,0000.43,0000.24,0000.06,0000.18,-000.05,0000.04,26.3,02.8,0670.5,34.5
2016-06-29T00:39:00Z,0000380,00000600,0001.68,0000.59,0000.09,-000.02,0000.16,-000.03,-000.20,-000.13,0000.09,26.3,02.8,0670.5,34.5
2016-06-29T00:40:00Z,0000380,00000600,0001.52,0000.48,0000.44,0000.17,0000.22,0000.38,0000.43,0000.12,0000.26,26.3,02.8,0670.5,34.5
2016-06-29T00:41:00Z,0000380,00000600,0000.89,0001.58,0000.38,0000.05,0000.41,-000.21,-000.21,0000.07,-000.28,26.3,02.9,0670.5,34.5
2016-06-29T00:42:00Z,0000380,00000600,0001.16,0001.21,0000.30,-000.19,0000.27,-000.13,-000.01,0000.09,0000.25,26.3,02.8,0670.5,34.5
2016-06-29T00:43:00Z,0000380,00000600,0001.20,0000.79,0000.16,-000.02,0000.14,0000.32,0000.11,-000.13,0000.23,26.3,02.8,0670.5,34.5
2016-06-29T00:44:00Z,0000380,00000600,0002.14,0001.04,0000.30,0000.11,0000.60,0000.05,-000.17,0000.01,-000.54,26.3,02.8,0670.5,34.5
2016-06-29T00:45:00Z,0000380,00000600,0001.48,0000.60,0000.06,0000.28,0000.24,0000.46,0000.18,-000.06,-000.22,26.3,02.7,0670.5,34.5
2016-06-29T00:46:00Z,0000380,00000600,0000.99,0000.94,0000.46,-000.30,0000.63,0000.43,-000.32,0000.03,0000.08,26.3,02.6,0670.5,34.5
2016-06-29T00:47:00Z,0000380,00000600,0001.34,0000.73,0000.26,-000.65,0000.05,0000.19,0000.10,-000.25,0000.01,26.4,02.6,0670.5,34.5
2016-06-29T00:48:00Z,0000380,00000600,0001.85,0000.98,0000.30,-000.03,0000.39,0000.00,-000.22,-000.18,-000.11,26.4,02.6,0670.5,34.5
2016-06-29T00:49:00Z,0000380,00000600,0000.51,0000.69,-000.07,0000.08,0000.33,0000.09,0000.44,0000.39,0000.51,26.5,02.6,0670.5,34.5
2016-06-29T00:50:00Z,0000380,00000600,0001.05,0001.09,0000.40,0000.76,0000.08,0000.44,-000.00,0000.09,-000.01,26.5,02.6,0670.5,34.5
2016-06-29T00:51:00Z,0000380,00000600,0001.67,0000.99,0000.18,0000.14,0000.28,0000.17,0000.22,0000.31,0000.33,26.5,02.6,0670.5,34.5
2016-06-29T00:52:00Z,0000380,00000600,0001.36,0001.36,0000.18,-000.52,0000.31,0000.24,0000.15,0000.19,-000.12,26.5,02.8,0670.5,34.5
2016-06-29T00:53:00Z,0000380,00000600,0000.86,0000.54,0000.44,0000.28,-000.24,0000.35,0000.12,0000.03,-000.17,26.5,02.7,0670.5,34.5
2016-06-29T00:54:00Z,0000380,00000600,0001.19,0000.38,0000.50,0000.55,0000.64,-000.16,0000.17,0000.10,0000.29,26.5,02.8,0670.5,34.5
2016-06-29T00:55:00Z,0000380,00000600,0001.31,0000.20,0000.07,0000.00,0000.00,-000.03,-000.07,-000.03,0000.01,26.5,02.8,0670.5,34.5
2016-06-29T00:56:00Z,0000380,00000600,0001.82,0000.90,0000.10,0000.03,0000.22,0000.22,0000.09,-000.08,0000.05,26.5,02.7,0670.5,34.5
2016-06-29T00:57:00Z,0000380,40000600,,,,,,,,,,,,0670.5,34.5
2016-06-29T00:58:00Z,0000380,60000600,,,,,,,,,,26.3,03.0,0669.7,34.5
2016-06-29T00:59:00Z,0000380,20000600,,,,,,,,,,26.3,02.9,0669.6,34.5
2016-06-29T01:00:00Z,0000380,20000600,,,,,,,,,,26.3,02.8,0669.6,34.5
2016-06-29T01:01:00Z,0000380,20000600,,,,,,,,,,26.3,02.7,0669.6,34.5
2016-06-29T01:02:00Z,0000380,20000600,,,,,,,,,,26.3,02.7,0669.6,34.5
2016-06-29T01:03:00Z,0000380,60000600,,,,,,,,,,26.3,02.7,0669.6,34.5
2016-06-29T01:04:00Z,0000380,40000600,0001.55,0000.71,0000.19,0000.54,-000.35,-000.17,0000.04,0000.35,0000.05,26.5,02.5,0670.4,34.5
2016-06-29T01:05:00Z,0000380,00000600,0001.73,0000.88,0000.23,0000.63,0000.36,-000.11,0000.11,-000.15,0000.03,26.5,02.4,0670.4,34.5
2016-06-29T01:06:00Z,0000380,00000600,0001.77,0001.06,-000.03,0000.44,-000.20,0000.00,-000.02,0000.10,-000.15,26.5,02.4,0670.4,34.5
2016-06-29T01:07:00Z,0000380,00000600,0001.33,0001.00,0000.25,0000.22,0000.16,-000.24,0000.08,0000.24,0000.27,26.6,02.3,0670.5,34.5
2016-06-29T01:08:00Z,0000380,00000600,0001.05,0000.62,0000.70,0000.00,0000.33,0000.38,0000.16,0000.20,-000.01,26.6,02.4,0670.5,34.5
2016-06-29T01:09:00Z,0000380,00000600,0001.25,0000.65,0000.03,0000.71,0000.52,-000.05,0000.20,-000.15,-000.15,26.5,02.4,0670.5,34.5
2016-06-29T01:10:00Z,0000380,00000600,0001.79,0000.62,0000.08,0000.28,0000.00,0000.19,0000.03,-000.05,0000.23,26.5,02.3,0670.5,34.5
2016-06-29T01:11:00Z,0000380,00000600,0001.42,0000.23,0000.67,0000.43,0000.31,-000.06,0000.11,-000.02,-000.42,26.5,02.3,0670.5,34.5
2016-06-29T01:12:00Z,0000380,00000600,0001.18,0000.72,0000.41,0000.55,0000.46,0000.00,-000.34,0000.01,0000.13,26.5,02.3,0670.5,34.5
2016-06-29T01:13:00Z,0000380,00000600,0001.94,0000.13,0000.07,0000.08,-000.02,-000.08,0000.20,0000.21,0000.40,26.5,02.3,0670.5,34.5
2016-06-29T01:14:00Z,0000380,00000600,0001.00,0000.23,0000.24,0000.46,0000.38,0000.00,0000.10,-000.14,0000.08,26.5,02.3,0670.5,34.5
2016-06-29T01:15:00Z,0000380,00000600,0000.65,0000.86,-000.09,0000.60,0000.27,0000.08,-000.03,0000.16,-000.10,26.5,02.4,0670.5,34.5
2016-06-29T01:16:00Z,0000380,00000600,0001.33,-000.19,0000.18,0000.76,0000.06,0000.16,0000.16,-000.08,-000.38,26.5,02.4,0670.5,34.5
2016-06-29T01:17:00Z,0000380,00000600,0000.54,-000.05,-000.02,-000.38,0000.16,-000.08,-000.28,0000.08,0000.40,26.5,02.4,0670.5,34.5
2016-06-29T01:18:00Z,0000380,00000600,0000.95,-000.13,-000.27,0000.27,-000.02,0000.25,-000.01,-000.02,-000.00,26.5,02.4,0670.5,34.5
2016-06-29T01:19:00Z,0000380,00000600,0000.53,0000.87,0000.10,0000.91,0000.16,-000.27,0000.20,0000.15,-000.11,26.5,02.3,0670.5,34.5
2016-06-29T01:20:00Z,0000380,00000600,0001.19,0000.16,0000.26,0000.79,0000.16,-000.17,-000.07,-000.08,0000.10,26.5,02.4,0670.5,34.5
2016-06-29T01:21:00Z,0000380,00000600,0000.16,0000.08,0000.44,0000.02,0000.13,-000.05,-000.02,0000.05,0000.17,26.5,02.4,0670.5,34.5
2016-06-29T01:22:00Z,0000380,00000600,0001.45,-000.06,0000.05,0000.46,0000.16,-000.24,0000.24,0000.29,0000.05,26.5,02.4,0670.5,34.5
2016-06-29T01:23:00Z,0000380,00000600,0000.61,-000.13,0000.41,0000.49,0000.24,0000.08,0000.24,0000.02,0000.26,26.5,02.3,0670.5,34.5
2016-06-29T01:24:00Z,0000380,00000600,0000.89,0000.27,0000.19,0000.35,0000.39,0000.16,-000.03,0000.03,-000.35,26.5,02.4,0670.5,34.5
2016-06-29T01:25:00Z,0000380,00000600,0000.94,0000.17,-000.32,0000.05,-000.16,-000.25,0000.06,-000.08,0000.38,26.5,02.4,0670.5,34.5
2016-06-29T01:26:00Z,0000380,00000600,0001.67,0000.75,0000.00,-000.05,0000.00,-000.19,0000.01,0000.09,-000.08,26.4,02.4,0670.5,34.5
2016-06-29T01:27:00Z,0000380,00000600,0000.00,0000.56,0000.00,-000.22,-000.25,0000.00,0000.02,-000.00,0000.04,26.5,02.4,0670.5,34.5
2016-06-29T01:28:00Z,0000380,00000600,0000.56,0000.38,0000.34,0000.85,0000.06,0000.16,-000.02,0000.06,0000.01,26.5,02.5,0670.5,34.5
2016-06-29T01:29:00Z,0000380,00000600,0001.51,0000.33,0000.04,0000.28,-000.03,0000.05,-000.05,-000.17,-000.25,26.5,02.4,0670.5,34.5
2016-06-29T01:30:00Z,0000380,00000600,0001.09,0000.35,0000.34,0000.22,0000.41,0000.13,0000.06,0000.17,0000.28,26.4,02.3,0670.5,34.5
2016-06-29T01:31:00Z,0000380,00000600,0000.62,-000.34,0000.22,0000.36,-000.13,0000.11,-000.43,-000.53,-000.72,26.4,02.3,0670.5,34.5
2016-06-29T01:32:00Z,0000380,00000600,0000.20,0000.24,0000.28,0000.14,0000.13,0000.14,-000.02,0000.09,0000.24,26.4,02.3,0670.5,34.5
2016-06-29T01:33:00Z,0000380,00000600,0001.26,-000.19,0000.04,0000.63,0000.13,-000.02,-000.15,-000.03,-000.05,26.4,02.2,0670.5,34.5
2016-06-29T01:34:00Z,0000380,00000600,0000.27,0000.33,-000.19,0000.03,0000.47,-000.08,0000.22,0000.10,0000.15,26.5,02.2,0670.5,34.5
2016-06-29T01:35:00Z,0000380,00000600,0000.66,0000.60,-000.51,-000.19,-000.06,0000.03,0000.09,-000.03,-000.14,26.5,02.1,0670.5,34.5
2016-06-29T01:36:00Z,0000380,00000600,0000.47,0000.09,0000.15,0000.05,0000.22,-000.09,0000.03,0000.36,0000.11,26.5,02.2,0670.5,34.5
2016-06-29T01:37:00Z,0000380,00000600,0000.38,-000.04,-000.48,0000.24,0000.39,-000.36,0000.18,0000.10,0000.06,26.5,02.2,0670.5,34.5
2016-06-29T01:38:00Z,0000380,00000600,0000.14,0000.20,0000.11,0000.19,-000.02,-000.02,-000.15,-000.23,-000.23,26.5,02.1,0670.5,34.5
2016-06-29T01:39:00Z,0000380,00000600,0001.05,0000.47,0000.03,0000.71,0000.27,0000.03,0000.06,0000.02,0000.19,26.5,02.1,0670.5,34.5
2016-06-29T01:40:00Z,0000380,00000600,0000.83,0000.60,0000.07,0000.57,-000.14,0000.05,-000.06,-000.12,-000.19,26.5,02.0,0670.4,34.5
2016-06-29T01:41:00Z,0000380,00000600,0001.01,0000.09,0000.02,0000.19,-000.46,0000.03,-000.01,0000.02,-000.07,26.5,02.0,0670.4,34.5
2016-06-29T01:42:00Z,0000380,00000600,0000.69,0000.46,-000.03,0000.85,-000.05,0000.22,-000.06,0000.26,0000.09,26.5,01.9,0670.4,34.5
2016-06-29T01:43:00Z,0000380,00000600,0000.64,-000.32,0000.00,-000.03,-000.11,0000.21,0000.16,0000.06,0000.07,26.5,01.9,0670.4,34.5
2016-06-29T01:44:00Z,0000380,00000600,0000.31,-000.01,-000.31,0000.85,-000.02,-000.32,0000.03,-000.16,0000.19,26.5,01.9,0670.4,34.5
2016-06-29T01:45:00Z,0000380,00000600,0000.72,0000.53,0000.09,0000.66,-000.16,-000.03,0000.05,0000.07,-000.03,26.5,02.0,0670.4,34.5
2016-06-29T01:46:00Z,0000380,00000600,0000.62,0000.43,-000.19,0000.36,0000.03,-000.41,0000.08,0000.14,0000.05,26.5,02.0,0670.4,34.5
2016-06-29T01:47:00Z,0000380,00000600,0000.49,0000.31,-000.02,0000.79,0000.57,-000.02,-000.05,-000.23,-000.12,26.5,02.0,0670.4,34.5
2016-06-29T01:48:00Z,0000380,00000600,0000.17,-000.03,0000.25,-000.08,-000.02,0000.05,0000.09,0000.16,0000.15,26.5,02.0,0670.4,34.5
2016-06-29T01:49:00Z,0000380,00000600,0000.20,0000.33,0000.21,0000.17,0000.13,0000.03,-000.12,0000.01,-000.05,26.4,02.0,0670.4,34.5
2016-06-29T01:50:00Z,0000380,00000600,0000.45,-000.19,-000.13,0000.30,-000.08,0000.00,0000.24,0000.03,0000.20,26.5,02.0,0670.4,34.5
2016-06-29T01:51:00Z,0000380,00000600,-000.32,0000.64,-000.17,0000.41,0000.00,0000.22,-000.21,-000.20,0000.08,26.5,02.0,0670.4,34.5
2016-06-29T01:52:00Z,0000380,00000600,-000.13,-000.22,-000.12,0000.63,0000.47,-000.02,0000.03,0000.01,-000.52,26.4,02.0,0670.4,34.5
2016-06-29T01:53:00Z,0000380,00000600,0001.14,-000.39,-000.23,0000.13,-000.06,-000.06,-000.08,0000.19,0000.29,26.4,01.9,0670.4,34.5
2016-06-29T01:54:00Z,0000380,00000600,0000.09,0000.24,0000.18,0000.66,0000.57,-000.06,0000.09,-000.36,-000.40,26.4,02.0,0670.4,34.5
2016-06-29T01:55:00Z,0000380,00000600,0000.20,0000.35,-000.03,0000.73,-000.05,-000.14,-000.02,0000.20,0000.32,26.4,01.9,0670.4,34.5
2016-06-29T01:56:00Z,0000380,00000600,0000.67,0000.00,-000.10,0000.88,0000.17,0000.03,0000.04,-000.02,-000.27,26.5,01.8,0670.4,34.5
2016-06-29T01:57:00Z,0000380,40000600,,,,,,,,,,,,0670.3,34.5
2016-06-29T01:58:00Z,0000380,60000600,,,,,,,,,,26.3,02.1,0669.5,34.5
2016-06-29T01:59:00Z,0000380,20000600,,,,,,,,,,26.3,02.0,0669.5,34.5
2016-06-29T02:00:00Z,0000380,20000600,,,,,,,,,,26.3,01.9,0669.4,34.5
2016-06-29T02:01:00Z,0000380,20000600,,,,,,,,,,26.3,01.8,0669.4,34.5
2016-06-29T02:02:00Z,0000380,20000600,,,,,,,,,,26.3,01.8,0669.4,34.5
2016-06-29T02:03:00Z,0000380,60000600,,,,,,,,,,26.3,01.8,0669.4,34.5
2016-06-29T02:04:00Z,0000380,40000600,0000.62,0000.26,0000.32,0000.36,0000.06,0000.25,-000.02,-000.08,-000.02,26.5,01.6,0670.2,34.5
2016-06-29T02:05:00Z,0000380,00000600,0001.09,0000.44,0000.14,0000.27,0000.03,0000.02,0000.09,-000.18,-000.07,26.5,01.7,0670.3,34.5
2016-06-29T02:06:00Z,0000380,00000600,0000.92,0000.52,0000.17,0000.35,0000.22,-000.05,-000.03,0000.28,0000.24,26.5,01.6,0670.2,34.5
2016-06-29T02:07:00Z,0000380,00000600,-000.04,0000.69,0000.13,0000.73,-000.03,-000.08,0000.16,0000.21,0000.26,26.5,01.7,0670.2,34.5
2016-06-29T02:08:00Z,0000380,00000600,0000.50,0000.73,0000.42,0001.07,-000.14,0000.03,0000.18,-000.04,-000.05,26.5,01.6,0670.3,34.5
2016-06-29T02:09:00Z,0000380,00000600,0001.30,0000.30,0000.37,0000.49,0000.36,0000.19,0000.14,0000.05,0000.02,26.5,01.6,0670.3,34.5
2016-06-29T02:10:00Z,0000380,00000600,0000.77,0000.70,0000.66,0000.19,0000.03,-000.11,-000.15,-000.04,-000.06,26.5,01.6,0670.3,34.5
2016-06-29T02:11:00Z,0000380,00000600,0001.51,0000.09,0000.33,0000.60,-000.09,-000.14,0000.18,0000.12,0000.13,26.5,01.5,0670.3,34.5
2016-06-29T02:12:00Z,0000380,00000600,0001.45,0000.48,0000.05,0000.17,0000.16,0000.19,-000.12,-000.16,-000.15,26.4,01.6,0670.3,34.5
2016-06-29T02:13:00Z,0000380,00000600,0000.59,0000.27,0000.38,0000.79,-000.08,0000.03,0000.15,0000.06,-000.00,26.5,01.6,0670.3,34.5
2016-06-29T02:14:00Z,0000380,00000600,0000.83,0000.52,0000.43,0001.04,0000.30,0000.06,-000.05,-000.01,0000.10,26.4,01.6,0670.3,34.5
2016-06-29T02:15:00Z,0000380,00000600,0000.50,0000.32,0000.54,0000.36,0000.38,-000.41,-000.10,0000.11,-000.24,26.4,01.6,0670.3,34.5
2016-06-29T02:16:00Z,0000380,00000600,0000.41,0001.12,0000.17,0000.44,-000.03,-000.06,-000.05,-000.28,-000.00,26.4,01.6,0670.2,34.5
2016-06-29T02:17:00Z,0000380,00000600,0001.08,0000.92,0000.35,0000.06,0000.09,-000.09,-000.17,-000.06,-000.20,26.4,01.6,0670.3,34.5
2016-06-29T02:18:00Z,0000380,00000600,0000.43,0000.87,0000.20,0000.02,0000.00,0000.08,0000.06,-000.00,0000.23,26.5,01.5,0670.2,34.5
2016-06-29T02:19:00Z,0000380,00000600,0000.79,0000.57,0000.37,0000.82,0000.14,-000.08,0000.03,-000.01,0000.08,26.5,01.5,0670.2,34.5
2016-06-29T02:20:00Z,0000380,01000600,0001.07,0000.54,0000.52,0000.35,0000.09,0000.14,-000.03,0000.04,-000.11,26.5,01.6,0670.2,34.5
2016-06-29T02:21:00Z,0000380,00000600,0000.63,0000.47,0000.30,0000.33,-000.33,0000.02,0000.03,0000.11,0000.12,26.5,01.6,0670.2,34.5
2016-06-29T02:22:00Z,0000380,00000600,-000.39,0000.75,0000.24,-000.05,0000.13,0000.05,0000.24,0000.14,0000.05,26.5,01.5,0670.2,34.5
2016-06-29T02:23:00Z,0000380,00000600,0000.91,0000.21,0000.71,0000.25,0000.17,0000.17,0000.15,0000.22,0000.26,26.5,01.6,0670.2,34.5
2016-06-29T02:24:00Z,0000380,00000600,0001.07,0000.80,0000.28,0000.21,0000.22,-000.06,-000.01,-000.15,-000.45,26.5,01.6,0670.3,34.5
2016-06-29T02:25:00Z,0000380,00000600,-000.08,0000.85,0000.47,0000.13,-000.02,-000.09,-000.04,0000.19,0000.15,26.5,01.5,0670.2,34.5
2016-06-29T02:26:00Z,0000380,00000600,0000.88,0000.26,0000.41,0000.33,-000.08,-000.03,0000.14,-000.20,-000.02,26.4,01.6,0670.3,34.5
2016-06-29T02:27:00Z,0000380,00000600,0000.41,0000.62,0000.60,0000.49,0000.08,0000.13,-000.12,-000.03,-000.20,26.4,01.6,0670.3,34.5
2016-06-29T02:28:00Z,0000380,00000600,0001.60,0000.65,0000.28,0000.76,-000.20,-000.35,0000.09,-000.17,0000.17,26.4,01.5,0670.3,34.5
2016-06-29T02:29:00Z,0000380,00000600,-001.21,0000.82,0000.03,0000.13,0000.05,-000.21,-000.09,0000.13,-000.17,26.4,01.6,0670.3,34.5
2016-06-29T02:30:00Z,0000380,00000600,0000.05,0000.61,0000.08,0000.44,-000.38,0000.00,0000.12,0000.26,0000.46,26.4,01.5,0670.2,34.5
2016-06-29T02:31:00Z,0000380,00000600,0001.51,0000.64,0000.00,0000.25,-000.33,-000.09,-000.10,-000.38,-000.14,26.4,01.6,0670.2,34.5
2016-06-29T02:32:00Z,0000380,00000600,0000.86,0000.53,0000.14,0000.43,-000.50,-000.11,-000.14,-000.00,0000.02,26.4,01.6,0670.2,34.5
2016-06-29T02:33:00Z,0000380,00000600,0000.27,0000.25,0000.40,0000.39,-000.14,-000.22,-000.17,-000.02,-000.11,26.4,01.6,0670.2,34.5
2016-06-29T02:34:00Z,0000380,00000600,0000.23,0000.22,0000.33,0000.44,-000.22,0000.09,0000.25,0000.14,-000.34,26.5,01.7,0670.2,34.5
2016-06-29T02:35:00Z,0000380,00000600,0000.29,0000.90,0000.36,0000.22,0000.02,-000.02,-000.13,-000.07,0000.17,26.5,01.6,0670.2,34.5
2016-06-29T02:36:00Z,0000380,00000600,0000.79,0000.48,0000.31,0000.21,-000.05,0000.03,0000.20,0000.12,0000.21,26.5,01.6,0670.2,34.5
2016-06-29T02:37:00Z,0000380,00000600,0001.14,0000.48,0000.15,0000.46,0000.35,-000.32,0000.05,0000.21,0000.33,26.5,01.5,0670.2,34.5
2016-06-29T02:38:00Z,0000380,00000600,0000.45,0000.88,0000.15,0000.41,0000.11,-000.02,0000.20,0000.06,-000.39,26.5,01.5,0670.2,34.5
2016-06-29T02:39:00Z,0000380,00000600,0000.25,0000.18,0000.58,0000.55,0000.00,0000.36,-000.09,-000.07,0000.16,26.5,01.6,0670.2,34.5
2016-06-29T02:40:00Z,0000380,00000600,0000.16,0000.45,0000.12,0000.63,-000.14,0000.13,0000.06,-000.09,0000.15,26.5,01.5,0670.2,34.5
2016-06-29T02:41:00Z,0000380,00000600,-000.32,0000.81,0000.45,0000.13,0000.24,-000.25,-000.16,0000.02,0000.20,26.5,01.5,0670.2,34.5
2016-06-29T02:42:00Z,0000380,00000600,0001.43,0000.86,0000.47,0000.11,0000.09,0000.02,0000.17,0000.21,-000.26,26.5,01.5,0670.2,34.5
2016-06-29T02:43:00Z,0000380,00000600,0000.61,0000.44,0000.74,-000.05,-000.17,-000.09,-000.14,-000.17,-000.20,26.5,01.4,0670.2,34.5
2016-06-29T02:44:00Z,0000380,00000600,-000.10,0000.38,0000.71,0000.03,-000.28,0000.08,0000.15,0000.02,-000.22,26.5,01.5,0670.2,34.5
2016-06-29T02:45:00Z,0000380,01000600,0002.15,0000.56,0000.48,0000.57,-000.06,-000.05,0000.02,0000.08,0000.32,26.5,01.4,0670.2,34.5
2016-06-29T02:46:00Z,0000380,00000600,0000.07,0000.40,0000.78,0000.50,0000.24,0000.43,0000.02,0000.03,-000.10,26.5,01.4,0670.2,34.5
2016-06-29T02:47:00Z,0000380,00000600,0001.22,0000.00,-000.08,0000.25,-000.08,-000.05,0000.02,-000.13,0000.31,26.5,01.4,0670.1,34.5
2016-06-29T02:48:00Z,0000380,00000600,0000.14,0000.41,0000.18,-000.33,0000.08,-000.06,-000.07,-000.12,-000.04,26.5,01.5,0670.1,34.5
2016-06-29T02:49:00Z,0000380,00000600,0000.20,0000.41,0000.46,-000.05,-000.09,0000.38,0000.09,0000.20,-000.26,26.4,01.4,0670.1,34.5
2016-06-29T02:50:00Z,0000380,01000600,0000.77,0000.86,0000.09,0000.71,-000.24,-000.14,-000.10,-000.03,0000.00,26.5,01.3,0670.1,34.5
2016-06-29T02:51:00Z,0000380,01000600,0000.49,-000.04,0000.42,0000.36,-000.30,-000.39,-000.03,-000.06,0000.18,26.5,01.3,0670.1,34.5
2016-06-29T02:52:00Z,0000380,00000600,-000.37,0000.60,0000.07,0000.47,0000.13,-000.17,-000.11,-000.08,-000.07,26.4,01.4,0670.1,34.5
2016-06-29T02:53:00Z,0000380,01000600,0000.26,0000.66,0000.24,0000.30,-000.14,-000.02,-000.04,0000.08,-000.26,26.5,01.3,0670.1,34.5
2016-06-29T02:54:00Z,0000380,01000600,0000.97,0000.07,0000.65,0000.44,0000.41,0000.39,0000.18,0000.14,0000.13,26.4,01.3,0670.1,34.5
2016-06-29T02:55:00Z,0000380,01000600,0000.92,0000.71,0000.23,0000.60,0000.11,-000.03,0000.03,-000.01,-000.10,26.4,01.3,0670.1,34.5
2016-06-29T02:56:00Z,0000380,01000600,0000.95,0000.51,0000.07,0000.57,0000.33,0000.02,-000.07,-000.19,-000.21,26.4,01.2,0670.1,34.5
2016-06-29T02:57:00Z,0000380,40000600,,,,,,,,,,,,0670.3,34.5
2016-06-29T02:58:00Z,0000380,60000600,,,,,,,,,,26.3,01.5,0669.2,34.5
2016-06-29T02:59:00Z,0000380,20000600,,,,,,,,,,26.3,01.4,0669.2,34.5
2016-06-29T03:00:00Z,0000380,20000600,,,,,,,,,,26.3,01.3,0669.2,34.5
2016-06-29T03:01:00Z,0000380,20000600,,,,,,,,,,26.3,01.3,0669.2,34.5
2016-06-29T03:02:00Z,0000380,20000600,,,,,,,,,,26.3,01.3,0669.2,34.5
2016-06-29T03:03:00Z,0000380,60000600,,,,,,,,,,26.3,01.3,0669.2,34.5
2016-06-29T03:04:00Z,0000380,40000600,0000.17,-000.01,-000.04,0000.73,-000.33,0000.33,-000.05,0000.22,0000.01,26.5,01.4,0670.0,34.5
2016-06-29T03:05:00Z,0000380,01000600,0000.67,0000.13,0000.02,-000.17,-000.17,0000.24,0000.23,0000.02,-000.38,26.5,01.4,0670.0,34.5
2016-06-29T03:06:00Z,0000380,00000600,0000.41,-000.01,0000.01,0000.55,-000.30,-000.27,-000.21,-000.06,0000.13,26.6,01.4,0670.0,34.5
2016-06-29T03:07:00Z,0000380,01000600,0000.48,0000.04,0000.07,0000.16,0000.08,-000.19,0000.33,0000.22,0000.38,26.6,01.4,0670.0,34.5
2016-06-29T03:08:00Z,0000380,00000600,0001.40,-000.23,-000.49,-000.33,-000.55,-000.17,0000.17,0000.20,-000.09,26.7,01.4,0670.0,34.5
2016-06-29T03:09:00Z,0000380,00000600,0000.16,-000.04,-000.35,-000.17,-000.36,-000.49,0000.22,0000.21,-000.06,26.6,01.6,0670.1,34.5
2016-06-29T03:10:00Z,0000380,00000600,-000.09,0000.00,0000.02,-000.11,-000.16,-000.68,0000.13,0000.13,0000.21,26.6,01.5,0670.1,34.5
2016-06-29T03:11:00Z,0000380,00000600,0000.02,0000.01,-000.06,0000.14,-000.38,-000.22,0000.11,0000.05,0000.11,26.6,01.6,0670.1,34.5
2016-06-29T03:12:00Z,0000380,00000600,0000.33,0000.01,-000.13,-000.14,-000.20,-000.13,0000.01,0000.03,0000.40,26.5,01.6,0670.1,34.5